Location: Elstree
(51.6403°N, 0.2969°W)
Time: 02:02:39
(UTC+00:00)

SL-08 RB Rocket - Pass Details

Date: 03 March 2021
Orbit: 647 x 683 km, 97.8° (Epoch: 11 April)

Event Time Altitude Azimuth Distance (km) Brightness Sun altitude
Rises 18:51:38 0° 159° (SSE) 2,970 6.8 -11.1°
Reaches altitude 10° 18:53:50 10° 157° (SSE) 2,068 6.0 -11.4°
Maximum altitude 18:58:20 74° 73° (ENE) 694 3.6 -12.1°
Drops below altitude 10° 19:02:56 10° 349° (N) 2,106 6.5 -12.8°
Sets 19:05:11 0° 348° (NNW) 3,031 7.3 -13.2°
